Погода в Баскаковке

Россия / Смоленская область     54°36′34″N   34°20′47″E
темп.,
°C
ветер,
м/с
пор.,
м/с
влажн.,
%
обл.,
%
осадки,
мм/ч
давл.,
гПа
погр.,
м
21 октября, чт
чт2100:00+8юз71789100 0.8 1006909
03:00+8юз61684100 0.8 1004615
06:00+8юз61885100 0.0 1003667
09:00+9юз61782100 0.0 1002643
12:00+12юз61575100 0.0 1002713
15:00+12юз61472100 0.0 1001696
18:00+11ююз51670100 0.0 1000772
21:00+11ююз71669100 0.0 998872
22 октября, пт
пт2200:00+12юз71663100 0.0 996829
03:00+12юз7177495 0.1 9961318
06:00+11зюз6137559 0.1 9961075
09:00+10зюз71577100 0.1 9981409
12:00+10зюз816668 0.3 10001732
15:00+10зюз715615 0.5 10021818
18:00+7зюз613645 0.0 10041199
21:00+6юз51268100 0.0 10051011
23 октября, сб
сб2300:00+6юз51369100 0.0 1005941
03:00+6юз5127065 0.0 10041056
06:00+5юз513725 0.0 1004855
09:00+4юз61276100 0.1 1005975
12:00+5зюз51079100 0.7 10061061
15:00+6з61168100 1.3 10071440
18:00+5зюз5117453 0.0 10091033
21:00+4зюз41083100 0.3 1010933
24 октября, вс
вс2400:00+4з51087100 0.9 1011905
03:00+3зюз4118959 0.9 1012630
06:00+2з4109699 0.1 1012685
09:00+2з41096100 0.3 1014623
12:00+1зсз51196100 1.1 1015636
15:00+2ссз6118291 1.9 10171134
18:00+1ссз5128896 0.1 10201029
21:00+1ссз5117979 0.3 1023985
25 октября, пн
пн2500:00−1ссз4118680 0.0 1026724
03:00−1с4886100 0.0 1028731
06:00−2с379296 0.0 1031542
09:00−1с258140 0.0 1033396
12:00+2с23645 0.0 1034651
15:00+3сз115981 0.0 1034771
18:00−1юз11771 0.0 103410
21:00−2ююз22815 0.0 103539